GW4413 Weather Reports


Display with metric or nautical units.
time (UTC)temp
F
wind
direction
speed
MPH
gust
MPH
rain 1hr
in
rain 24hr
in
rain mn
in
humidity
%
barometer
mb
20260503023024 67 298 0.0 1.0 0.00 0.00 0.00 52 1014.2
20260503022007 67 298 0.0 2.0 0.00 0.00 0.00 51 1014.2
20260503021539 67 298 0.0 2.0 0.00 0.00 0.00 51 1014.2
20260503021007 67 298 0.0 1.0 0.00 0.00 0.00 51 1014.3
20260503020511 68 298 0.0 1.0 0.00 0.00 0.00 51 1014.3
20260503020024 68 298 0.0 1.0 0.00 0.00 0.00 51 1014.3
20260503015513 68 298 0.0 1.0 0.00 0.00 0.00 51 1014.4
20260503014006 68 298 0.0 1.0 0.00 0.00 0.00 49 1014.5
20260503013508 68 298 0.0 2.0 0.00 0.00 0.00 49 1014.6
20260503013026 68 298 0.0 2.0 0.00 0.00 0.00 48 1014.6
20260503012507 69 298 0.0 2.0 0.00 0.00 0.00 49 1014.7
20260503012015 69 298 0.0 2.0 0.00 0.00 0.00 47 1014.8
20260503011522 69 298 0.0 2.0 0.00 0.00 0.00 46 1014.9
20260503010504 69 288 0.0 2.0 0.00 0.00 0.00 46 1014.8
20260503010021 69 349 0.0 2.0 0.00 0.00 0.00 46 1014.8
20260503005507 69 349 0.0 2.0 0.00 0.00 0.00 45 1014.8
20260503005003 70 74 0.0 2.0 0.00 0.00 0.00 44 1014.8
20260503004006 70 321 0.0 3.0 0.00 0.00 0.00 44 1014.8
20260503003503 70 299 0.0 2.0 0.00 0.00 0.00 45 1014.7
20260503002507 70 287 0.0 1.0 0.00 0.00 0.00 44 1014.7
20260503002011 70 287 0.0 2.0 0.00 0.00 0.00 43 1014.7
20260503001526 70 282 0.0 2.0 0.00 0.00 0.00 43 1014.8
20260503001007 70 282 0.0 2.0 0.00 0.00 0.00 44 1014.9
20260503000509 70 282 0.0 2.0 0.00 0.00 0.00 44 1014.9
20260503000024 70 236 0.0 2.0 0.00 0.00 0.00 43 1014.9
20260502235510 70 319 0.0 2.0 0.00 0.00 0.00 42 1015.0
20260502235010 70 324 0.0 2.0 0.00 0.00 0.00 43 1015.0
20260502234007 70 332 0.0 2.0 0.00 0.00 0.00 44 1015.1
20260502232507 70 294 0.0 2.0 0.00 0.00 0.00 43 1015.2
20260502232012 70 257 0.0 2.0 0.00 0.00 0.00 45 1015.3
20260502231524 69 34 0.0 3.0 0.00 0.00 0.00 46 1015.4
20260502231007 69 34 0.0 3.0 0.00 0.00 0.00 45 1015.4
20260502230510 69 17 0.0 2.0 0.00 0.00 0.00 48 1015.5
20260502230025 69 323 0.0 2.0 0.00 0.00 0.00 47 1015.5
20260502225007 69 277 0.0 2.0 0.00 0.00 0.00 47 1015.8
20260502224532 69 115 0.0 2.0 0.00 0.00 0.00 49 1015.8
20260502224010 68 338 0.0 2.0 0.00 0.00 0.00 51 1015.9
20260502223510 68 316 0.0 2.0 0.00 0.00 0.00 51 1016.0
20260502223024 68 256 0.0 2.0 0.00 0.00 0.00 51 1016.1
20260502222510 68 320 0.0 3.0 0.00 0.00 0.00 52 1016.2
20260502222011 68 360 0.0 3.0 0.00 0.00 0.00 53 1016.3
20260502221528 68 245 0.0 3.0 0.00 0.00 0.00 53 1016.4
20260502221007 68 227 0.0 3.0 0.00 0.00 0.00 53 1016.4
20260502220504 68 284 0.0 3.0 0.00 0.00 0.00 53 1016.4
20260502220006 68 190 0.0 3.0 0.00 0.00 0.00 53 1016.5
20260502215507 68 290 1.0 3.0 0.00 0.00 0.00 52 1016.5
20260502215005 68 261 1.0 3.0 0.00 0.00 0.00 54 1016.5
20260502214505 67 352 0.0 2.0 0.00 0.00 0.00 55 1016.5
20260502214013 67 352 0.0 2.0 0.00 0.00 0.00 54 1016.6
20260502213506 67 5 0.0 3.0 0.00 0.00 0.00 55 1016.7
20260502212508 67 257 0.0 3.0 0.00 0.00 0.00 52 1016.7
20260502212005 67 246 1.0 3.0 0.00 0.00 0.00 51 1016.7
20260502211009 67 269 1.0 3.0 0.00 0.00 0.00 52 1016.6
20260502210003 67 333 1.0 3.0 0.00 0.00 0.00 53 1016.6
20260502205504 67 251 0.0 3.0 0.00 0.00 0.00 56 1016.7
20260502205004 67 282 0.0 3.0 0.00 0.00 0.00 55 1016.7
20260502204506 67 297 1.0 3.0 0.00 0.00 0.00 55 1016.8
20260502203505 66 336 1.0 3.0 0.00 0.00 0.00 56 1016.9
20260502203005 66 236 0.0 3.0 0.00 0.00 0.00 55 1016.9
20260502202507 66 333 0.0 2.0 0.00 0.00 0.00 57 1016.9
20260502202006 65 304 0.0 4.0 0.00 0.00 0.00 56 1017.0
20260502201505 66 28 2.0 4.0 0.00 0.00 0.00 57 1017.1
20260502201007 66 315 0.0 3.0 0.00 0.00 0.00 56 1017.2
20260502200504 65 347 1.0 4.0 0.00 0.00 0.00 57 1017.3
20260502200005 65 297 1.0 4.0 0.00 0.00 0.00 59 1017.3
20260502195509 65 238 1.0 2.0 0.00 0.00 0.00 59 1017.3
20260502195006 65 263 0.0 3.0 0.00 0.00 0.00 58 1017.3
20260502194505 65 275 0.0 3.0 0.00 0.00 0.00 58 1017.4
20260502193505 64 269 0.0 4.0 0.00 0.00 0.00 59 1017.5
20260502193006 64 323 1.0 4.0 0.00 0.00 0.00 60 1017.5
20260502192006 64 261 0.0 2.0 0.00 0.00 0.00 62 1017.6
20260502191525 64 331 0.0 3.0 0.00 0.00 0.00 62 1017.6
20260502191008 63 327 0.0 3.0 0.00 0.00 0.00 62 1017.7
20260502190024 63 277 1.0 3.0 0.00 0.00 0.00 62 1017.8
20260502185508 63 348 0.0 3.0 0.00 0.00 0.00 64 1017.8
20260502184525 63 273 0.0 2.0 0.00 0.00 0.00 63 1017.8
20260502184007 63 275 0.0 3.0 0.00 0.00 0.00 64 1017.8
20260502183504 63 256 1.0 3.0 0.00 0.00 0.00 64 1017.8
20260502183025 62 314 0.0 2.0 0.00 0.00 0.00 65 1017.9
20260502182007 62 341 0.0 3.0 0.00 0.00 0.00 66 1017.8
20260502181527 61 38 1.0 2.0 0.00 0.00 0.00 67 1017.8
20260502181007 61 352 0.0 2.0 0.00 0.00 0.00 68 1017.8
20260502180503 61 298 0.0 2.0 0.00 0.00 0.00 69 1017.9
20260502170506 58 240 0.0 2.0 0.00 0.00 0.00 75 1018.4
20260502164010 57 292 0.0 2.0 0.00 0.00 0.00 78 1018.4
20260502163026 56 289 0.0 2.0 0.00 0.00 0.00 80 1018.3
20260502162510 56 235 0.0 2.0 0.00 0.00 0.00 81 1018.4
20260502162007 56 235 0.0 2.0 0.00 0.00 0.00 81 1018.4
20260502161524 55 235 0.0 1.0 0.00 0.00 0.00 82 1018.3
20260502160505 55 235 0.0 1.0 0.00 0.00 0.00 84 1018.1
20260502151527 51 235 0.0 0.0 0.00 0.00 0.00 91 1018.1
20260502151007 51 235 0.0 0.0 0.00 0.00 0.00 91 1018.0
20260502150512 50 235 0.0 0.0 0.00 0.00 0.00 91 1018.1
20260502130504 48 235 0.0 0.0 0.00 0.00 0.00 92 1017.7
20260502123512 48 235 0.0 0.0 0.00 0.00 0.00 91 1017.9
20260502123005 48 235 0.0 0.0 0.00 0.00 0.00 91 1017.8
20260502122502 48 235 0.0 0.0 0.00 0.00 0.00 91 1017.7
20260502122007 48 235 0.0 0.0 0.00 0.00 0.00 91 1017.8
20260502121504 48 235 0.0 0.0 0.00 0.00 0.00 91 1017.7
20260502121002 48 235 0.0 0.0 0.00 0.00 0.00 91 1017.7
20260502115503 49 235 0.0 0.0 0.00 0.00 0.00 90 1017.8
20260502115003 49 235 0.0 0.0 0.00 0.00 0.00 90 1017.6
20260502114504 49 235 0.0 0.0 0.00 0.00 0.00 90 1017.4
20260502114003 49 235 0.0 0.0 0.00 0.00 0.00 91 1017.5
20260502113503 49 235 0.0 0.0 0.00 0.00 0.00 90 1017.3
20260502112504 49 235 0.0 0.0 0.00 0.00 0.00 90 1017.2
20260502112009 49 235 0.0 0.0 0.00 0.00 0.00 90 1017.2
20260502111002 49 235 0.0 0.0 0.00 0.00 0.00 90 1017.2
20260502110006 49 235 0.0 0.0 0.00 0.00 0.00 90 1017.2
20260502105502 49 235 0.0 0.0 0.00 0.00 0.00 90 1017.2
20260502105005 49 235 0.0 0.0 0.00 0.00 0.00 89 1017.3
20260502104511 49 235 0.0 0.0 0.00 0.00 0.00 89 1017.3
20260502104004 49 235 0.0 0.0 0.00 0.00 0.00 89 1017.3
20260502103503 49 235 0.0 0.0 0.00 0.00 0.00 89 1017.3
20260502103011 49 235 0.0 0.0 0.00 0.00 0.00 89 1017.4
20260502102503 49 235 0.0 0.0 0.00 0.00 0.00 88 1017.4
20260502102007 49 235 0.0 0.0 0.00 0.00 0.00 88 1017.4
20260502101506 49 235 0.0 0.0 0.00 0.00 0.00 88 1017.4
20260502100503 50 235 0.0 0.0 0.00 0.00 0.00 88 1017.3
20260502091504 50 235 0.0 0.0 0.00 0.00 0.00 86 1017.1
20260502091008 50 235 0.0 0.0 0.00 0.00 0.00 86 1017.1
20260502090503 50 235 0.0 0.0 0.00 0.00 0.00 86 1017.2
20260502071514 52 235 0.0 0.0 0.00 0.00 0.00 82 1016.8
20260502071006 52 235 0.0 1.0 0.00 0.00 0.00 82 1016.8
20260502070013 53 235 0.0 1.0 0.00 0.00 0.00 82 1016.7
20260502065509 53 235 0.0 1.0 0.00 0.00 0.00 83 1016.8
20260502065012 53 235 0.0 1.0 0.00 0.00 0.00 82 1016.8
20260502064505 53 235 0.0 1.0 0.00 0.00 0.00 82 1016.8
20260502064012 53 235 0.0 1.0 0.00 0.00 0.00 82 1016.7
20260502063505 53 235 0.0 1.0 0.00 0.00 0.00 82 1016.7
20260502063006 53 235 0.0 1.0 0.00 0.00 0.00 82 1016.6
20260502062508 53 235 0.0 1.0 0.00 0.00 0.00 82 1016.6
20260502062007 54 235 0.0 2.0 0.00 0.00 0.00 82 1016.6
20260502061526 54 235 0.0 2.0 0.00 0.00 0.00 81 1016.6
20260502061005 54 235 0.0 2.0 0.00 0.00 0.00 79 1016.6
20260502060506 54 235 0.0 2.0 0.00 0.00 0.00 79 1016.5
20260502055507 54 235 0.0 2.0 0.00 0.00 0.00 78 1016.4
20260502054527 54 235 0.0 2.0 0.00 0.00 0.00 77 1016.5
20260502054006 54 235 1.0 2.0 0.00 0.00 0.00 77 1016.4
20260502053504 55 235 0.0 2.0 0.00 0.00 0.00 77 1016.4
20260502053026 55 235 0.0 2.0 0.00 0.00 0.00 77 1016.4
20260502052508 55 235 0.0 2.0 0.00 0.00 0.00 77 1016.4
20260502052004 55 235 0.0 2.0 0.00 0.00 0.00 77 1016.4
20260502051525 55 235 0.0 2.0 0.00 0.00 0.00 77 1016.3
20260502051007 55 235 0.0 2.0 0.00 0.00 0.00 77 1016.3
20260502050505 55 235 0.0 2.0 0.00 0.00 0.00 76 1016.2
20260502050024 55 235 1.0 2.0 0.00 0.00 0.00 76 1016.3
20260502045504 55 235 0.0 2.0 0.00 0.00 0.00 75 1016.3
20260502044506 56 235 0.0 2.0 0.00 0.00 0.00 75 1016.0
20260502044002 56 235 0.0 2.0 0.00 0.00 0.00 74 1016.0
20260502043507 56 235 0.0 2.0 0.00 0.00 0.00 73 1016.1
20260502043007 56 235 0.0 2.0 0.00 0.00 0.00 72 1016.0
20260502042005 56 235 1.0 3.0 0.00 0.00 0.00 72 1016.0
20260502041505 56 235 1.0 2.0 0.00 0.00 0.00 72 1016.0
20260502041002 56 235 0.0 3.0 0.00 0.00 0.00 72 1016.0
20260502040504 56 235 0.0 3.0 0.00 0.00 0.00 72 1015.9
20260502035503 56 235 0.0 2.0 0.00 0.00 0.00 71 1015.9
20260502035007 56 231 0.0 2.0 0.00 0.00 0.00 71 1015.9
20260502034509 57 231 1.0 3.0 0.00 0.00 0.00 71 1015.9
20260502034002 57 259 1.0 3.0 0.00 0.00 0.00 69 1015.8
20260502033009 57 260 0.0 3.0 0.00 0.00 0.00 69 1015.7
20260502032502 57 235 1.0 3.0 0.00 0.00 0.00 69 1015.9
20260502032006 57 235 0.0 2.0 0.00 0.00 0.00 69 1015.9
20260502031507 57 235 0.0 2.0 0.00 0.00 0.00 68 1015.8
20260502031002 57 235 0.0 2.0 0.00 0.00 0.00 69 1015.7
20260502030504 57 235 0.0 2.0 0.00 0.00 0.00 68 1015.7
20260502030006 57 246 0.0 2.0 0.00 0.00 0.00 69 1015.6
20260502025502 57 246 0.0 2.0 0.00 0.00 0.00 70 1015.6
20260502025003 57 264 0.0 2.0 0.00 0.00 0.00 71 1015.5
20260502024005 57 238 0.0 4.0 0.00 0.00 0.00 71 1015.5
20260502023504 57 230 0.0 4.0 0.00 0.00 0.00 72 1015.5